EA8CHC Sevilla ES current weather conditions

sailwx.info

Wind from 223 at 6 knots gusting 13

Air temperature 31.7° C
Dewpoint 14.7° C

Last reported at 2016-Jul-30 17:52 UTC.
Time now 2016-Jul-30 18:50 UTC

Location: N 37°26' W 006°03'.
View on Google Maps.

See reports from other nearby stations

  
Tides and Currents Weather Stations Pressure Air Temp Water Temp Dewpoint Dewpoint Depression Visibility Wind Speed Wind Dir Waves Ship Positions
date/time (UTC)wind fromknots sea level pressurealtimeterstation pressurevisibilityair tempwater tempwave heightnotes
2016-Jul-30 17:52 223 6 gusting 13 31.7
2016-Jul-30 17:47 214 6 gusting 13 31.7
2016-Jul-30 17:42 198 6 gusting 13 31.7
2016-Jul-30 17:37 294 6 gusting 13 31.7
2016-Jul-30 17:32 236 6 gusting 13 31.7
2016-Jul-30 17:27 234 6 gusting 13 31.7
2016-Jul-30 17:22 273 6 gusting 13 31.7
2016-Jul-30 17:17 224 6 gusting 13 31.7
2016-Jul-30 17:12 223 7 gusting 13 31.7
2016-Jul-30 17:07 225 6 gusting 13 31.7
2016-Jul-30 17:02 213 6 gusting 13 31.7
2016-Jul-30 16:57 231 6 gusting 13 31.7
2016-Jul-30 16:52 251 6 gusting 13 31.7
2016-Jul-30 16:47 205 6 gusting 13 31.7
2016-Jul-30 16:42 250 6 gusting 13 31.7
2016-Jul-30 16:37 250 7 gusting 13 31.7
2016-Jul-30 16:32 224 6 gusting 16 31.7
2016-Jul-30 16:27 198 5 gusting 16 31.7
2016-Jul-30 16:22 221 6 gusting 16 31.7
2016-Jul-30 16:17 218 6 gusting 16 31.7
2016-Jul-30 16:12 235 5 gusting 12 31.7
2016-Jul-30 16:07 265 6 gusting 12 31.7
2016-Jul-30 16:02 244 6 gusting 12 31.7
2016-Jul-30 15:57 281 6 gusting 12 31.7
2016-Jul-30 15:52 259 6 gusting 15 31.7
2016-Jul-30 15:47 269 7 gusting 15 31.7
2016-Jul-30 15:42 225 7 gusting 15 31.7
2016-Jul-30 15:37 228 7 gusting 15 31.7
2016-Jul-30 15:32 200 6 gusting 12 31.7
2016-Jul-30 15:27 231 6 gusting 12 31.7
2016-Jul-30 15:22 238 5 gusting 12 31.7
2016-Jul-30 15:17 207 5 gusting 12 31.7
2016-Jul-30 15:12 265 5 gusting 13 31.7
2016-Jul-30 15:07 267 6 gusting 13 31.7
2016-Jul-30 15:02 178 6 gusting 11 31.7
2016-Jul-30 14:57 192 6 gusting 11 31.7
2016-Jul-30 14:52 164 5 gusting 13 31.1
2016-Jul-30 14:47 216 6 gusting 13 31.1
2016-Jul-30 14:42 226 7 gusting 12 31.1
2016-Jul-30 14:37 236 5 gusting 12 31.1
2016-Jul-30 14:32 212 5 gusting 13 31.7
2016-Jul-30 14:27 203 6 gusting 13 31.1
2016-Jul-30 14:22 220 5 gusting 12 31.1
2016-Jul-30 14:17 282 5 gusting 12 31.1
2016-Jul-30 14:12 200 5 gusting 12 30.6
2016-Jul-30 14:07 202 4 gusting 12 30.6
2016-Jul-30 14:02 236 5 gusting 17 30.0
2016-Jul-30 13:57 149 6 gusting 17 30.0
2016-Jul-30 13:52 195 6 gusting 17 30.6
2016-Jul-30 13:47 179 6 gusting 17 30.0
2016-Jul-30 13:42 212 4 gusting 15 30.0
2016-Jul-30 13:37 164 6 gusting 15 30.0
2016-Jul-30 13:32 163 7 gusting 13 29.4
2016-Jul-30 13:27 184 6 gusting 13 29.4
2016-Jul-30 13:22 191 3 gusting 13 29.4
2016-Jul-30 13:17 129 4 gusting 13 29.4
2016-Jul-30 13:12 188 6 gusting 11 28.9
2016-Jul-30 13:07 196 5 gusting 11 29.4
2016-Jul-30 13:02 203 3 gusting 11 29.4
2016-Jul-30 12:57 214 4 gusting 11 29.4
2016-Jul-30 12:52 173 5 gusting 10 28.9
2016-Jul-30 12:47 140 4 gusting 10 28.9
2016-Jul-30 12:42 163 3 gusting 13 28.3
2016-Jul-30 12:37 240 5 gusting 13 28.3
2016-Jul-30 12:32 163 5 gusting 13 28.3
2016-Jul-30 12:27 178 5 gusting 13 27.8
2016-Jul-30 12:22 226 6 gusting 10 27.8
2016-Jul-30 12:17 185 5 gusting 9 27.8
2016-Jul-30 12:12 196 4 gusting 11 27.2
2016-Jul-30 12:07 196 3 gusting 11 27.2
2016-Jul-30 12:02 156 4 gusting 12 27.2
2016-Jul-30 11:57 195 6 gusting 12 27.2
2016-Jul-30 11:52 190 6 gusting 12 27.2
2016-Jul-30 11:47 161 6 gusting 12 27.2
2016-Jul-30 11:42 223 5 gusting 12 27.2
2016-Jul-30 11:37 206 5 gusting 12 26.7
2016-Jul-30 11:32 098 4 gusting 8 26.7
2016-Jul-30 11:27 190 3 gusting 8 27.2
2016-Jul-30 11:22 110 3 gusting 8 26.7
2016-Jul-30 11:17 183 4 gusting 8 26.7
2016-Jul-30 11:12 037 4 gusting 9 26.7
2016-Jul-30 11:07 140 3 gusting 9 26.7
2016-Jul-30 11:02 171 3 gusting 9 26.7
2016-Jul-30 10:57 217 4 gusting 9 26.1
2016-Jul-30 10:52 173 4 gusting 11 26.1
2016-Jul-30 10:47 139 3 gusting 11 26.1
2016-Jul-30 10:42 226 3 gusting 10 26.1
2016-Jul-30 10:37 218 3 gusting 10 26.1
2016-Jul-30 10:32 226 2 gusting 9 26.1
2016-Jul-30 10:27 233 2 gusting 9 25.6
2016-Jul-30 10:22 233 2 gusting 6 25.6
2016-Jul-30 10:17 141 2 gusting 6 25.6
2016-Jul-30 10:12 167 2 gusting 10 25.6
2016-Jul-30 10:07 130 3 gusting 10 25.0
2016-Jul-30 10:02 201 4 gusting 9 25.0
2016-Jul-30 09:57 151 3 gusting 9 25.0
2016-Jul-30 09:52 178 1 gusting 8 25.0
2016-Jul-30 09:47 186 1 gusting 8 24.4
2016-Jul-30 09:42 186 3 gusting 8 24.4
2016-Jul-30 09:37 194 3 gusting 8 24.4
2016-Jul-30 09:32 224 3 gusting 7 24.4
2016-Jul-30 09:27 206 3 gusting 7 24.4
2016-Jul-30 09:22 216 2 gusting 7 24.4
2016-Jul-30 09:17 179 3 gusting 7 24.4
2016-Jul-30 09:12 238 3 gusting 6 24.4
2016-Jul-30 09:07 219 2 gusting 6 23.9
2016-Jul-30 09:02 211 3 gusting 6 23.9
2016-Jul-30 08:57 211 2 gusting 6 23.9
2016-Jul-30 08:52 215 0 gusting 5 23.9
2016-Jul-30 08:47 244 0 gusting 5 23.9
2016-Jul-30 08:42 170 1 gusting 7 23.9
2016-Jul-30 08:37 196 2 gusting 7 23.3
2016-Jul-30 08:32 238 2 gusting 7 23.3
2016-Jul-30 08:27 195 2 gusting 7 23.3
2016-Jul-30 08:22 195 2 gusting 8 23.3
2016-Jul-30 08:17 213 2 gusting 8 23.3
2016-Jul-30 08:12 174 3 gusting 6 23.3
2016-Jul-30 08:07 159 3 gusting 6 23.3
2016-Jul-30 08:02 153 2 gusting 6 22.8
2016-Jul-30 07:57 197 3 gusting 6 22.8
2016-Jul-30 07:52 197 1 gusting 6 22.8
2016-Jul-30 07:47 191 1 gusting 6 22.8
2016-Jul-30 07:42 187 2 gusting 6 22.8
2016-Jul-30 07:37 209 2 gusting 6 22.8
2016-Jul-30 07:32 198 3 gusting 6 22.8
2016-Jul-30 07:27 202 2 gusting 6 22.8
2016-Jul-30 07:22 203 2 gusting 7 22.8
2016-Jul-30 07:17 202 2 gusting 7 22.8
2016-Jul-30 07:12 203 2 gusting 9 22.8
2016-Jul-30 07:07 202 5 gusting 9 22.8
2016-Jul-30 07:02 192 4 gusting 6 22.8
2016-Jul-30 06:57 225 3 gusting 6 22.2
2016-Jul-30 06:52 192 4 gusting 6 22.2
2016-Jul-30 06:47 201 3 gusting 6 22.2
2016-Jul-30 06:42 196 3 gusting 6 22.2
2016-Jul-30 06:37 196 2 gusting 6 22.2
2016-Jul-30 06:32 221 2 gusting 6 22.2
2016-Jul-30 06:27 221 2 gusting 6 22.2
2016-Jul-30 06:22 221 3 gusting 6 22.2
2016-Jul-30 06:17 217 4 gusting 6 22.2
2016-Jul-30 06:12 213 3 gusting 7 22.2
2016-Jul-30 06:07 222 3 gusting 7 22.2
2016-Jul-30 06:02 222 4 gusting 7 22.2
2016-Jul-30 05:57 238 3 gusting 7 22.2
2016-Jul-30 05:52 221 3 gusting 7 22.2
2016-Jul-30 05:47 244 3 gusting 7 22.2
2016-Jul-30 05:42 221 2 gusting 6 22.2
2016-Jul-30 05:37 244 2 gusting 6 22.2
2016-Jul-30 05:32 244 2 gusting 7 22.2
2016-Jul-30 05:27 242 3 gusting 7 22.2
2016-Jul-30 05:22 262 3 gusting 8 22.2
2016-Jul-30 05:17 239 2 gusting 8 22.2
2016-Jul-30 05:12 266 2 gusting 8 22.2
2016-Jul-30 05:07 235 4 gusting 8 22.2
2016-Jul-30 05:02 245 4 gusting 7 22.2
2016-Jul-30 04:57 236 4 gusting 7 22.2
2016-Jul-30 04:52 211 3 gusting 8 22.2
2016-Jul-30 04:47 230 3 gusting 8 22.2
2016-Jul-30 04:42 196 4 gusting 8 22.2
2016-Jul-30 04:37 184 4 gusting 8 22.2
2016-Jul-30 04:32 194 4 gusting 9 22.2
2016-Jul-30 04:27 255 5 gusting 9 22.2
2016-Jul-30 04:22 209 4 gusting 7 22.2
2016-Jul-30 04:17 225 4 gusting 7 22.2
2016-Jul-30 04:12 235 3 gusting 6 22.2
2016-Jul-30 04:07 221 2 gusting 6 22.8
2016-Jul-30 04:02 217 3 gusting 6 22.8
2016-Jul-30 03:57 225 3 gusting 6 22.8
2016-Jul-30 03:52 232 3 gusting 9 22.8
2016-Jul-30 03:47 242 3 gusting 9 22.2
2016-Jul-30 03:42 198 5 gusting 7 22.2
2016-Jul-30 03:37 247 4 gusting 7 22.8
2016-Jul-30 03:32 253 3 gusting 8 22.8
2016-Jul-30 03:27 211 4 gusting 8 22.8
2016-Jul-30 03:22 196 4 gusting 7 22.8
2016-Jul-30 03:17 207 3 gusting 7 22.8
2016-Jul-30 03:12 227 3 gusting 8 22.8
2016-Jul-30 03:07 221 3 gusting 8 22.8
2016-Jul-30 03:02 246 3 gusting 8 22.8
2016-Jul-30 02:57 252 3 gusting 8 22.8
2016-Jul-30 02:52 212 3 gusting 7 22.8
2016-Jul-30 02:47 205 3 gusting 7 22.8
2016-Jul-30 02:42 242 3 gusting 9 22.8
2016-Jul-30 02:37 203 4 gusting 9 22.8
2016-Jul-30 02:32 216 5 gusting 8 22.8
2016-Jul-30 02:27 196 5 gusting 8 22.8
2016-Jul-30 02:22 219 4 gusting 7 22.8
2016-Jul-30 02:17 221 3 gusting 7 22.8
2016-Jul-30 02:12 249 3 gusting 10 22.8
2016-Jul-30 02:07 221 4 gusting 10 22.8
2016-Jul-30 02:02 275 4 gusting 8 22.8
2016-Jul-30 01:57 225 3 gusting 8 22.8
2016-Jul-30 01:52 201 3 gusting 11 22.8
2016-Jul-30 01:47 283 4 gusting 11 22.8
2016-Jul-30 01:42 232 5 gusting 8 22.8
2016-Jul-30 01:37 221 4 gusting 8 22.8
2016-Jul-30 01:32 202 4 gusting 10 22.8
2016-Jul-30 01:27 248 5 gusting 10 22.8
2016-Jul-30 01:22 200 6 gusting 11 22.8
2016-Jul-30 01:17 218 6 gusting 11 22.8
2016-Jul-30 01:12 224 5 gusting 9 22.8
2016-Jul-30 01:07 220 5 gusting 9 23.3
2016-Jul-30 01:02 225 4 gusting 9 23.3
2016-Jul-30 00:57 227 4 gusting 9 23.3
2016-Jul-30 00:52 222 4 gusting 7 23.3
2016-Jul-30 00:47 207 3 gusting 7 23.3
2016-Jul-30 00:42 220 4 gusting 7 23.3
2016-Jul-30 00:37 218 4 gusting 7 23.3
2016-Jul-30 00:32 221 4 gusting 9 23.3
2016-Jul-30 00:27 217 4 gusting 9 23.3
2016-Jul-30 00:22 228 4 gusting 9 23.3
2016-Jul-30 00:17 242 4 gusting 7 23.3
2016-Jul-30 00:12 212 4 gusting 10 23.3
2016-Jul-30 00:07 213 4 gusting 10 23.3
2016-Jul-30 00:02 248 5 gusting 10 23.3
2016-Jul-29 23:57 222 6 gusting 10 23.3
2016-Jul-29 23:52 222 5 gusting 6 23.3
2016-Jul-29 23:47 217 4 gusting 6 23.3
2016-Jul-29 23:42 231 4 gusting 6 23.3
2016-Jul-29 23:37 192 3 gusting 6 23.3
2016-Jul-29 23:32 225 3 gusting 6 23.3
2016-Jul-29 23:27 202 3 gusting 6 23.3
2016-Jul-29 23:22 227 3 gusting 6 23.3
2016-Jul-29 23:17 205 3 gusting 6 23.9
2016-Jul-29 23:12 238 2 gusting 6 23.9
2016-Jul-29 23:07 204 2 gusting 6 23.9
2016-Jul-29 23:02 204 3 gusting 6 23.9
2016-Jul-29 22:57 204 3 gusting 6 23.9
2016-Jul-29 22:52 204 3 gusting 7 24.4
2016-Jul-29 22:47 209 3 gusting 7 24.4
2016-Jul-29 22:42 200 4 gusting 7 24.4
2016-Jul-29 22:37 239 3 gusting 7 24.4
2016-Jul-29 22:32 198 2 gusting 6 25.0
2016-Jul-29 22:27 198 2 gusting 6 25.0
2016-Jul-29 22:22 237 2 gusting 6 25.0
2016-Jul-29 22:17 194 2 gusting 6 25.0
2016-Jul-29 22:12 225 2 gusting 5 25.0
2016-Jul-29 22:07 236 2 gusting 5 25.0
2016-Jul-29 22:02 224 2 gusting 6 25.0
2016-Jul-29 21:57 224 2 gusting 6 25.0
2016-Jul-29 21:52 224 3 gusting 10 25.0
2016-Jul-29 21:47 225 3 gusting 10 25.0
2016-Jul-29 21:42 224 4 gusting 10 25.0
2016-Jul-29 21:37 218 4 gusting 10 25.0
2016-Jul-29 21:32 232 4 gusting 9 25.0
2016-Jul-29 21:27 240 3 gusting 9 25.6
2016-Jul-29 21:22 266 3 gusting 8 25.6
2016-Jul-29 21:17 242 4 gusting 8 25.6
2016-Jul-29 21:12 246 4 gusting 9 25.6
2016-Jul-29 21:07 227 3 gusting 9 25.6
2016-Jul-29 21:02 232 3 gusting 10 25.6
2016-Jul-29 20:57 217 4 gusting 10 25.6
2016-Jul-29 20:52 227 5 gusting 9 26.1
2016-Jul-29 20:47 226 4 gusting 9 26.1
2016-Jul-29 20:42 243 5 gusting 12 26.1
2016-Jul-29 20:37 242 5 gusting 12 26.1
2016-Jul-29 20:32 233 5 gusting 12 26.1
2016-Jul-29 20:27 245 5 gusting 12 26.1
2016-Jul-29 20:22 251 5 gusting 11 26.7
2016-Jul-29 20:17 229 5 gusting 11 26.7
2016-Jul-29 20:12 225 5 gusting 10 26.7
2016-Jul-29 20:07 247 5 gusting 10 26.7
2016-Jul-29 20:02 237 4 gusting 12 26.7
2016-Jul-29 19:57 269 4 gusting 12 27.2
2016-Jul-29 19:52 259 5 gusting 10 27.2
2016-Jul-29 19:47 245 5 gusting 10 27.2
2016-Jul-29 19:42 248 5 gusting 11 27.8
2016-Jul-29 19:37 260 4 gusting 11 27.8
2016-Jul-29 19:32 223 3 gusting 10 27.8
2016-Jul-29 19:27 252 4 gusting 10 27.8
2016-Jul-29 19:22 268 4 gusting 11 28.3
2016-Jul-29 19:17 243 5 gusting 11 28.3
2016-Jul-29 19:12 247 5 gusting 9 28.3
2016-Jul-29 19:07 240 4 gusting 9 28.3
2016-Jul-29 19:02 256 5 gusting 10 28.9
2016-Jul-29 18:57 240 6 gusting 10 28.9
2016-Jul-29 18:52 247 6 gusting 13 28.9
2016-Jul-29 18:47 239 6 gusting 13 28.9
2016-Jul-29 18:42 228 6 gusting 13 29.4
2016-Jul-29 18:37 220 5 gusting 13 29.4
2016-Jul-29 18:32 236 5 gusting 12 29.4
2016-Jul-29 18:27 243 6 gusting 12 29.4
2016-Jul-29 18:22 223 6 gusting 13 29.4
2016-Jul-29 18:17 232 6 gusting 13 30.0
2016-Jul-29 18:12 217 6 gusting 12 30.0
2016-Jul-29 18:07 288 6 gusting 12 30.0
2016-Jul-29 18:02 213 6 gusting 11 30.6
2016-Jul-29 17:57 267 6 gusting 11 30.6
2016-Jul-29 17:52 236 5 gusting 13 30.6
2016-Jul-29 17:47 221 6 gusting 13 30.6
2016-Jul-29 17:42 277 6 gusting 11 30.6
2016-Jul-29 17:37 263 6 gusting 11 31.1
2016-Jul-29 17:32 225 6 gusting 16 31.1
2016-Jul-29 17:27 212 7 gusting 16 30.6
2016-Jul-29 17:22 218 8 gusting 13 30.6
2016-Jul-29 17:17 234 6 gusting 13 31.1
2016-Jul-29 17:12 232 6 gusting 14 31.7
2016-Jul-29 17:07 298 6 gusting 14 31.7
2016-Jul-29 17:02 247 7 gusting 13 31.7
2016-Jul-29 16:57 193 7 gusting 13 31.7
2016-Jul-29 16:52 232 6 gusting 15 31.7
2016-Jul-29 16:47 207 7 gusting 15 32.2
2016-Jul-29 16:42 244 7 gusting 14 32.2
2016-Jul-29 16:37 200 6 gusting 14 32.2
2016-Jul-29 16:32 204 6 gusting 16 32.8
2016-Jul-29 16:27 246 6 gusting 16 32.8
2016-Jul-29 16:22 217 8 gusting 17 32.8
2016-Jul-29 16:17 223 8 gusting 17 32.8
2016-Jul-29 16:12 241 8 gusting 16 32.8
2016-Jul-29 16:07 221 9 gusting 16 32.8
2016-Jul-29 16:02 238 9 gusting 16 33.3
2016-Jul-29 15:57 237 9 gusting 16 33.3
2016-Jul-29 15:52 227 8 gusting 18 33.9
2016-Jul-29 15:47 207 9 gusting 18 33.9
2016-Jul-29 15:42 211 9 gusting 16 33.9
2016-Jul-29 15:37 229 8 gusting 16 33.9
2016-Jul-29 15:32 216 7 gusting 17 34.4
2016-Jul-29 15:27 218 8 gusting 17 34.4
2016-Jul-29 15:22 219 9 gusting 17 34.4
2016-Jul-29 15:17 188 8 gusting 17 35.0
2016-Jul-29 15:12 217 9 gusting 17 35.0
2016-Jul-29 15:07 200 8 gusting 17 35.0
2016-Jul-29 15:02 211 7 gusting 17 35.6
2016-Jul-29 14:57 130 8 gusting 17 35.6
2016-Jul-29 14:52 176 8 gusting 15 35.6
2016-Jul-29 14:47 179 8 gusting 15 35.6
2016-Jul-29 14:42 144 8 gusting 15 35.6
2016-Jul-29 14:37 167 7 gusting 15 35.6
2016-Jul-29 14:32 180 6 gusting 14 35.6
2016-Jul-29 14:27 178 7 gusting 14 35.6
2016-Jul-29 14:22 221 7 gusting 15 35.6
2016-Jul-29 14:17 188 7 gusting 15 35.6
2016-Jul-29 14:12 138 7 gusting 15 35.6
2016-Jul-29 14:07 163 7 gusting 15 35.6
2016-Jul-29 14:02 169 7 gusting 15 35.0
2016-Jul-29 13:57 194 7 gusting 15 35.0
2016-Jul-29 13:52 159 8 gusting 16 35.0
2016-Jul-29 13:47 205 8 gusting 16 34.4
2016-Jul-29 13:42 158 8 gusting 16 34.4
2016-Jul-29 13:37 196 7 gusting 16 34.4
2016-Jul-29 13:32 212 6 gusting 15 34.4
2016-Jul-29 13:27 146 7 gusting 15 34.4
2016-Jul-29 13:22 186 7 gusting 15 34.4
2016-Jul-29 13:17 161 7 gusting 15 34.4
2016-Jul-29 13:12 150 7 gusting 12 34.4
2016-Jul-29 13:07 197 6 gusting 12 34.4
2016-Jul-29 13:02 263 6 gusting 12 33.9
2016-Jul-29 12:57 232 6 gusting 12 33.9
2016-Jul-29 12:52 183 6 gusting 10 33.9
2016-Jul-29 12:47 195 6 gusting 10 33.3
2016-Jul-29 12:42 147 4 gusting 10 33.3
2016-Jul-29 12:37 179 4 gusting 10 32.8
2016-Jul-29 12:32 215 3 gusting 9 32.8
2016-Jul-29 12:27 216 4 gusting 9 32.8
2016-Jul-29 12:22 172 5 gusting 9 33.3
2016-Jul-29 12:17 163 4 gusting 8 33.9
2016-Jul-29 12:12 183 5 gusting 8 33.9
2016-Jul-29 12:07 141 4 gusting 8 34.4
2016-Jul-29 12:02 169 3 gusting 8 34.4
2016-Jul-29 11:57 161 2 gusting 8 34.4
2016-Jul-29 11:52 184 2 gusting 8 33.9
2016-Jul-29 11:47 187 3 gusting 8 33.9
2016-Jul-29 11:42 194 3 gusting 17 33.9
2016-Jul-29 11:37 205 4 gusting 17 33.9
2016-Jul-29 11:32 214 5 gusting 6 33.3
2016-Jul-29 11:27 166 3 gusting 6 33.3
2016-Jul-29 11:22 162 2 gusting 7 32.8
2016-Jul-29 11:17 225 2 gusting 7 32.8
2016-Jul-29 11:12 156 3 gusting 6 32.2
2016-Jul-29 11:07 111 2 gusting 6 32.2
2016-Jul-29 11:02 111 3 gusting 6 31.7
2016-Jul-29 10:57 106 2 gusting 6 31.7
2016-Jul-29 10:52 055 1 gusting 5 31.7
2016-Jul-29 10:47 125 2 gusting 5 31.7
2016-Jul-29 10:42 128 2 gusting 6 31.1
2016-Jul-29 10:37 054 3 gusting 6 31.1
2016-Jul-29 10:32 156 3 gusting 6 31.1
2016-Jul-29 10:27 076 2 gusting 6 30.6
2016-Jul-29 10:22 167 0 gusting 5 30.6
2016-Jul-29 10:17 120 0 gusting 5 30.6
2016-Jul-29 10:12 130 1 gusting 4 30.0
2016-Jul-29 10:07 072 2 gusting 4 30.0
2016-Jul-29 10:02 095 1 gusting 4 29.4
2016-Jul-29 09:57 096 1 gusting 4 29.4
2016-Jul-29 09:52 065 1 gusting 4 29.4
2016-Jul-29 09:47 065 1 gusting 4 29.4
2016-Jul-29 09:42 020 0 gusting 5 29.4
2016-Jul-29 09:37 035 1 gusting 5 29.4
2016-Jul-29 09:32 117 1 gusting 6 28.9
2016-Jul-29 09:27 083 1 gusting 6 28.9
2016-Jul-29 09:22 094 1 gusting 6 28.3
2016-Jul-29 09:17 094 2 gusting 6 28.3
2016-Jul-29 09:12 058 1 gusting 4 28.3
2016-Jul-29 09:07 098 0 gusting 4 28.3
2016-Jul-29 09:02 030 1 gusting 4 28.3
2016-Jul-29 08:57 067 1 gusting 4 28.3
2016-Jul-29 08:52 081 0 gusting 3 28.3
2016-Jul-29 08:47 074 0 gusting 3 28.3
2016-Jul-29 08:42 074 0 gusting 3 28.3
2016-Jul-29 08:37 074 0 gusting 3 27.8
2016-Jul-29 08:32 074 0 gusting 2 27.8
2016-Jul-29 08:27 074 0 gusting 2 27.8
2016-Jul-29 08:22 074 27.2
2016-Jul-29 08:17 074 27.2
2016-Jul-29 08:12 074 27.2
2016-Jul-29 08:07 074 26.7
2016-Jul-29 08:02 074 26.7
2016-Jul-29 07:57 074 26.1
2016-Jul-29 07:52 074 25.6
2016-Jul-29 07:47 074 0 gusting 2 25.6
2016-Jul-29 07:42 074 0 gusting 3 25.0
2016-Jul-29 07:37 074 1 gusting 3 25.0
2016-Jul-29 07:32 074 1 gusting 4 24.4
2016-Jul-29 07:27 074 1 gusting 4 24.4
2016-Jul-29 07:22 074 2 gusting 4 24.4
2016-Jul-29 07:17 074 2 gusting 4 24.4
2016-Jul-29 07:12 084 2 gusting 5 24.4
2016-Jul-29 07:07 123 2 gusting 5 24.4
2016-Jul-29 07:02 101 2 gusting 5 24.4
2016-Jul-29 06:57 107 0 gusting 5 24.4
2016-Jul-29 06:52 273 24.4
2016-Jul-29 06:47 273 23.9
2016-Jul-29 06:42 273 23.9
2016-Jul-29 06:37 273 23.3
2016-Jul-29 06:32 273 0 gusting 3 23.3
2016-Jul-29 06:27 273 0 gusting 3 22.8
2016-Jul-29 06:22 273 1 gusting 4 22.8
2016-Jul-29 06:17 273 1 gusting 4 22.8
2016-Jul-29 06:12 273 1 gusting 4 22.8
2016-Jul-29 06:07 273 1 gusting 4 22.2
2016-Jul-29 06:02 273 2 gusting 4 22.2
2016-Jul-29 05:57 273 2 gusting 4 22.2
2016-Jul-29 05:52 273 1 gusting 4 22.2
2016-Jul-29 05:47 273 1 gusting 4 22.2
2016-Jul-29 05:42 273 2 gusting 4 22.2
2016-Jul-29 05:37 273 1 gusting 4 22.2
2016-Jul-29 05:32 273 0 gusting 3 22.2
2016-Jul-29 05:27 273 0 gusting 3 22.2
2016-Jul-29 05:22 273 1 gusting 3 22.2
2016-Jul-29 05:17 273 1 gusting 3 22.8
2016-Jul-29 05:12 273 1 gusting 3 22.8
2016-Jul-29 05:07 273 1 gusting 3 22.8
2016-Jul-29 05:02 273 0 gusting 5 23.3
2016-Jul-29 04:57 273 1 gusting 5 23.3
2016-Jul-29 04:52 273 1 gusting 3 23.3
2016-Jul-29 04:47 273 1 gusting 3 23.3
2016-Jul-29 04:42 273 1 gusting 3 23.3
2016-Jul-29 04:37 273 0 gusting 3 23.3
2016-Jul-29 04:32 273 0 gusting 4 23.3
2016-Jul-29 04:27 273 1 gusting 4 23.9
2016-Jul-29 04:22 273 1 gusting 4 23.9
2016-Jul-29 04:17 273 1 gusting 4 23.9
2016-Jul-29 04:12 273 1 gusting 3 23.9
2016-Jul-29 04:07 273 1 gusting 3 23.9
2016-Jul-29 04:02 273 0 gusting 4 23.9
2016-Jul-29 03:57 273 0 gusting 4 23.9
2016-Jul-29 03:52 273 0 gusting 4 24.4
2016-Jul-29 03:47 273 0 gusting 4 24.4
2016-Jul-29 03:42 273 0 gusting 3 24.4
2016-Jul-29 03:37 273 24.4
2016-Jul-29 03:32 273 0 gusting 5 25.0
2016-Jul-29 03:27 273 1 gusting 5 25.0
2016-Jul-29 03:22 273 1 gusting 6 25.6
2016-Jul-29 03:17 273 3 gusting 6 25.6
2016-Jul-29 03:12 273 4 gusting 6 25.6
2016-Jul-29 03:07 273 4 gusting 6 25.6
2016-Jul-29 03:02 280 4 gusting 6 25.6
2016-Jul-29 02:57 281 3 gusting 6 25.6
2016-Jul-29 02:52 292 3 gusting 6 25.6
2016-Jul-29 02:47 292 3 gusting 6 25.6
2016-Jul-29 02:42 282 3 gusting 9 25.6
2016-Jul-29 02:37 273 4 gusting 9 25.6
2016-Jul-29 02:32 271 5 gusting 9 26.1
2016-Jul-29 02:27 276 6 gusting 9 26.1
2016-Jul-29 02:22 282 5 gusting 6 26.1
2016-Jul-29 02:17 262 4 gusting 6 26.7
2016-Jul-29 02:12 281 3 gusting 7 26.7
2016-Jul-29 02:07 258 3 gusting 7 26.1
2016-Jul-29 02:02 255 4 gusting 7 26.1
2016-Jul-29 01:57 273 5 gusting 7 26.7
2016-Jul-29 01:52 265 4 gusting 7 26.7
2016-Jul-29 01:47 299 4 gusting 7 26.7
2016-Jul-29 01:42 269 4 gusting 6 26.7
2016-Jul-29 01:37 268 2 gusting 6 26.7
2016-Jul-29 01:32 258 1 gusting 6 26.7
2016-Jul-29 01:27 281 1 gusting 6 26.7
2016-Jul-29 01:22 285 26.7
2016-Jul-29 01:17 285 26.7
2016-Jul-29 01:12 285 0 27.2
2016-Jul-29 01:07 285 27.2
2016-Jul-29 01:02 285 27.2
2016-Jul-29 00:57 285 27.2
2016-Jul-29 00:52 285 27.2
2016-Jul-29 00:47 285 0 gusting 2 27.2
2016-Jul-29 00:42 285 0 27.2
2016-Jul-29 00:37 285 27.8
2016-Jul-29 00:32 285 27.8
2016-Jul-29 00:27 285 27.8
2016-Jul-29 00:22 285 27.8
2016-Jul-29 00:17 285 27.8
2016-Jul-29 00:12 285 27.8
2016-Jul-29 00:07 285 27.8
2016-Jul-29 00:02 285 27.8
2016-Jul-28 23:57 285 27.8
2016-Jul-28 23:52 285 27.8
2016-Jul-28 23:47 285 27.8
2016-Jul-28 23:42 285 27.8
2016-Jul-28 23:37 285 28.3
2016-Jul-28 23:32 285 0 gusting 3 28.3
2016-Jul-28 23:27 285 0 gusting 3 28.3
2016-Jul-28 23:22 285 0 gusting 3 28.3
2016-Jul-28 23:17 285 0 gusting 3 28.3
2016-Jul-28 23:12 285 0 gusting 4 28.3
2016-Jul-28 23:07 285 0 gusting 4 28.3
2016-Jul-28 23:02 285 1 gusting 4 28.3
2016-Jul-28 22:57 285 2 gusting 4 28.3
2016-Jul-28 22:52 285 3 gusting 5 28.3
2016-Jul-28 22:47 286 3 gusting 5 28.9
2016-Jul-28 22:42 267 3 gusting 6 28.9
2016-Jul-28 22:37 268 3 gusting 6 28.9
2016-Jul-28 22:32 261 4 gusting 7 28.9
2016-Jul-28 22:27 282 4 gusting 7 28.9
2016-Jul-28 22:22 285 4 gusting 6 28.9
2016-Jul-28 22:17 272 3 gusting 6 28.9
2016-Jul-28 22:12 280 0 gusting 6 29.4
2016-Jul-28 22:07 327 29.4
2016-Jul-28 22:02 327 0 gusting 6 29.4
2016-Jul-28 21:57 266 2 gusting 6 29.4
2016-Jul-28 21:52 269 4 gusting 6 29.4
2016-Jul-28 21:47 280 3 gusting 6 29.4
2016-Jul-28 21:42 261 2 gusting 6 30.0
2016-Jul-28 21:37 245 1 gusting 6 30.0
2016-Jul-28 21:32 300 1 gusting 3 30.0
2016-Jul-28 21:27 202 0 gusting 3 30.6
2016-Jul-28 21:22 202 0 gusting 8 30.6
2016-Jul-28 21:17 202 1 gusting 8 30.6
2016-Jul-28 21:12 202 2 gusting 12 30.6
2016-Jul-28 21:07 197 3 gusting 12 30.6
2016-Jul-28 21:02 238 5 gusting 12 30.6
2016-Jul-28 20:57 234 5 gusting 12 30.6
2016-Jul-28 20:52 239 6 gusting 12 31.1
2016-Jul-28 20:47 238 5 gusting 12 31.1
2016-Jul-28 20:42 259 5 gusting 11 31.1
2016-Jul-28 20:37 275 5 gusting 11 31.7
2016-Jul-28 20:32 215 6 gusting 11 31.7
2016-Jul-28 20:27 229 6 gusting 11 31.7
2016-Jul-28 20:22 227 5 gusting 15 31.7
2016-Jul-28 20:17 237 6 gusting 15 31.7
2016-Jul-28 20:12 257 8 gusting 14 31.7
2016-Jul-28 20:07 190 9 gusting 14 32.2
2016-Jul-28 20:02 238 8 gusting 15 32.2
2016-Jul-28 19:57 232 8 gusting 15 32.2
2016-Jul-28 19:52 217 8 gusting 15 32.8
2016-Jul-28 19:47 225 7 gusting 15 32.8
2016-Jul-28 19:42 251 8 gusting 14 32.8
2016-Jul-28 19:37 238 8 gusting 14 33.3
2016-Jul-28 19:32 202 8 gusting 14 33.3
2016-Jul-28 19:27 215 8 gusting 14 33.9
2016-Jul-28 19:22 221 8 gusting 14 33.9
2016-Jul-28 19:17 231 8 gusting 14 34.4
2016-Jul-28 19:12 233 7 gusting 13 34.4
2016-Jul-28 19:07 219 6 gusting 13 34.4
2016-Jul-28 19:02 214 7 gusting 13 35.0
2016-Jul-28 18:57 221 6 gusting 13 35.0
2016-Jul-28 18:52 205 5 gusting 7 35.6
2016-Jul-28 18:47 202 4 gusting 7 36.1
2016-Jul-28 18:42 219 5 gusting 9 36.1
2016-Jul-28 18:37 226 4 gusting 9 36.1
2016-Jul-28 18:32 203 3 gusting 9 36.1
2016-Jul-28 18:27 211 4 gusting 9 36.1
2016-Jul-28 18:22 226 4 gusting 9 36.1
2016-Jul-28 18:17 205 4 gusting 9 36.1
2016-Jul-28 18:12 240 4 gusting 7 36.7
2016-Jul-28 18:07 242 3 gusting 7 36.7
2016-Jul-28 18:02 225 3 gusting 7 36.7